COSMOS 1275 DEB

Satellite information

Favourite Embed

Satellite Type and Status

DEBRISIN ORBIT

Key statistics

Satellite COSMOS 1275 DEB at a glance.

Uptime

16105

Days in orbit

Revolutions

≈ 14.1

Per day

Orbit

LEO

Low Earth Orbit

Inclination

82.9

Latest

Satellite identification and parameters

Extended collection of information and parameters for COSMOS 1275 DEB.

Object identification

Identified? True

Debris? True

Object name: COSMOS 1275 DEB

International designator: 1981-053HM

Object number (NORAD): 13817

Object ID (CCSDS): 13817

Country: COMMONWEALTH OF INDEPENDENT STATES (CIS)

Current information (Y/N): Y

RCS size: SMALL

Orbital parameters

Period: 102.368 minutes

Inclination: 82.9434 deg

SMA: 7248.87 km

Apoapsis: 887.374 km

Periapsis: 854.096 km

RAAN: 186.4766 deg

Eccentricy: 0.0022954

Argument of periapsis: 306.1159 deg

Mean anomaly: 53.789 deg

Mean motion: 14.06686401 rev/day

Mean motion (dot): 0.00001184 rev/day2

B* drag term: 0.00070266 1/REarth

Two-line elements (TLE)

Creation date: July 8, 2025, 2:27 a.m.

Reference frame: TEME

Reference center: EARTH

Epoch: July 7, 2025, 11:01 p.m. UTC

TLE line 0: 0 COSMOS 1275 DEB

TLE line 1: 1 13817U 81053HM 25188.95962397 .00001184 00000-0 70266-3 0 9999

TLE line 2: 2 13817 82.9434 186.4766 0022954 306.1159 53.7890 14.06686401207554

Live tracking on map

Real-time ground track for satellite COSMOS 1275 DEB.

In-orbit conjunctions

A list of the most updated potential collisions computed for object COSMOS 1275 DEB.

Target Orbit TCA Probability of collision Miss distance Type
THORAD AGENA D DEB SSO 2025-05-19 03:24:31 0.000109495 132.0 (m) DEBRIS
FENGYUN 1C DEB SSO 2025-04-30 02:52:50 0.0002250335 75.0 (m) DEBRIS

Associated space launch

Navigation satellite providing location information for the Tsiklon-B navigation system

COSMOS 1275 DEB was lifted into orbit during the mission ‘Kosmos-3M | Parus 27’, on board a Kosmos-3M space rocket.

The launch took place on June 4, 1981, 3:41 p.m. from 132/2.

For more information about the launch, click the button.

Launch to space Kosmos-3M | Parus 27
Kosmos-3M | Parus 27

Agency: N/A

Status: Launch Successful

Launch date: June 4, 1981, 3:41 p.m. UTC

Rocket: Kosmos-3M

Launch pad: 132/2

Location: Plesetsk Cosmodrome, Russian Federation

...

Latest news about this satellite

There are no fresh news available about this satellite. Check back as we update our databases every day.


Newsletter sign-up

Weekly statistics, charts and insights to help you stay on top of the space industry.